User: anonymous   Login
Location: Chiroubles
(46.1812°N, 4.6660°E)
Time: 11:43:57
(UTC+00:00)
Language:

Cosmos 2221 Rocket - Orbit

View from above orbital plane
View from above orbital plane
View from above satellite
View from above satellite

Ground track
Ground track

The orbit data is extracted from the following two-line orbital elements,

1 22237U 92080B   20296.84768574 +.00000103 +00000-0 +10920-4 0  9993
2 22237 082.5133 059.3490 0020216 159.9406 200.2605 14.78420150504146
Epoch (UTC): 22 October 2020 20:20:40
Eccentricity: 0.0020216
inclination: 82.5133°
perigee height: 620 km
apogee height: 648 km
right ascension of ascending node: 59.3490°
argument of perigee: 159.9406°
revolutions per day: 14.78420150
mean anomaly at epoch: 200.2605°
orbit number at epoch: 50414

The dashed part of the orbit path shows where the satellite is in the earth's shadow,  

DLR